Flag Weather past 2 weeks in Liverpool, England, United Kingdom

Now
45 °F

Light rain. Passing clouds.


Feels Like: 40 °F
Forecast: 44 / 48 °F
Wind: 9 mph from Northeast

Location: Liverpool Airport

Current Time: Nov 26, 2014 at 7:08:06 AM

Latest Report: Nov 26, 2014 at 6:20 AM


Visibility: N/A

Pressure: 29.95 "Hg

Humidity: 93%

Dew point: 43 °F

Location of LiverpoolLocation

Historic Weather in Liverpool — Graph

°F

Liverpool temperature yesterday

Maximum temperature yesterday: 45 °F (at 11:50 AM)
Minimum temperature yesterday: 34 °F (at 3:50 AM)
Average temperature yesterday: 40 °F

Past Weeks' High & Low Weather Summary

 TemperatureHumidityPressure
High57 °F (Nov 13, 3:50 PM)100% (Nov 16, 1:50 AM)30.33 "Hg (Nov 16, 1:50 AM)
Low34 °F (Nov 25, 3:50 AM)66% (Nov 23, 2:20 PM)29.21 "Hg (Nov 12, 12:50 AM)
Average48 °F88%29.79 "Hg
* Reported Nov 11 5:20 AM — Nov 26 5:50 AM, Liverpool, Weather by CustomWeather, © 2014

Note: Actual official high and low records may vary slightly from our data, if they occured in-between our weather recording intervals... More about our weather records

Advertising

Liverpool weather history for previous 24 hours

 ConditionsComfort  
Time TempWeatherWind HumidityBarometerVisibility
5:50 AM
Nov 26
45 °FLight rain. Passing clouds.9 mph93%29.95 "HgN/A
5:20 AM45 °FLight rain. Passing clouds.10 mph93%29.98 "HgN/A
4:50 AM45 °FLight rain. Passing clouds.9 mph93%29.98 "HgN/A
4:20 AM43 °FLight rain. Passing clouds.10 mph100%29.98 "HgN/A
3:20 AM43 °FLight rain. Passing clouds.8 mph100%30.01 "HgN/A
2:50 AM43 °FLight rain. Passing clouds.9 mph93%30.01 "HgN/A
2:20 AM43 °FLight rain. Passing clouds.8 mph93%30.01 "HgN/A
1:50 AM43 °FLight rain. Passing clouds.10 mph93%30.04 "HgN/A
1:20 AM43 °FLight rain. Passing clouds.8 mph93%30.04 "HgN/A
12:50 AM43 °FLight rain. Passing clouds.8 mph93%30.04 "HgN/A
12:20 AM43 °FLight rain. Passing clouds.8 mph87%30.07 "HgN/A
11:50 PM
Nov 25
43 °FLight rain. Passing clouds.7 mph87%30.07 "HgN/A
11:20 PM43 °FLight rain. Passing clouds.10 mph87%30.09 "HgN/A
10:50 PM43 °FLight rain. Passing clouds.10 mph87%30.09 "HgN/A
10:20 PM43 °FLight rain. Passing clouds.9 mph87%30.09 "HgN/A
9:50 PM43 °FLight rain. Passing clouds.10 mph93%30.12 "HgN/A
8:50 PM43 °FPassing clouds.9 mph87%30.12 "HgN/A
8:20 PM43 °FClear.10 mph93%30.12 "HgN/A
7:50 PM43 °FClear.8 mph87%30.12 "HgN/A
7:20 PM43 °FPassing clouds.6 mph93%30.15 "HgN/A
6:50 PM43 °FPassing clouds.3 mph87%30.15 "HgN/A
6:20 PM43 °FPassing clouds.3 mph87%30.15 "HgN/A
5:50 PM43 °FPassing clouds.2 mph87%30.15 "HgN/A
5:20 PM43 °FPassing clouds.3 mph81%30.15 "HgN/A
4:50 PM41 °FPassing clouds.3 mph87%30.15 "Hg6 mi
4:20 PM41 °FPassing clouds.3 mph87%30.15 "Hg6 mi
3:50 PM41 °FSunny.6 mph87%30.15 "Hg10 mi
3:20 PM41 °FSunny.6 mph87%30.15 "Hg10 mi
2:50 PM43 °FSunny.3 mph81%30.18 "Hg10 mi
2:20 PM43 °FSunny.3 mph87%30.18 "Hg10 mi
1:50 PM43 °FSunny.3 mph81%30.18 "Hg10 mi
1:20 PM43 °FSunny.5 mph87%30.21 "Hg10 mi
12:50 PM43 °FSunny.6 mph87%30.21 "Hg10 mi
12:20 PM43 °FSunny.6 mph87%30.24 "Hg10 mi
11:50 AM45 °FSunny.7 mph81%30.24 "Hg10 mi
11:20 AM43 °FSunny.6 mph87%30.24 "Hg10 mi
10:50 AM41 °FSunny.6 mph87%30.24 "Hg10 mi
10:20 AM39 °FSunny.5 mph93%30.27 "Hg10 mi
9:50 AM39 °FPassing clouds.6 mph93%30.27 "HgN/A
9:20 AM37 °FPassing clouds.6 mph100%30.27 "HgN/A
8:50 AM37 °FPassing clouds.6 mph93%30.27 "HgN/A
8:20 AM36 °FPassing clouds.6 mph93%30.27 "Hg6 mi
7:50 AM36 °FPassing clouds.6 mph100%30.27 "Hg5 mi
7:20 AM34 °FPassing clouds.5 mph100%30.27 "Hg5 mi
Weather by CustomWeather, © 2014

See weather overviewHow to use our weather pages